Terug naar catalogus

OPS 1593

TRANSIT 11

ActiefNavigatiePO
NORAD 1952·PAYLOAD·🇺🇸 United States

Gelanceerd Jan 28, 1966 vanaf Vandenberg Space Force Base

Loading…

Volgende Passages (komende 24 uur)

TLE

VersSource: Space-Track

Epoch: Sep 14, 2026, 05:02 UTC

1 01952U 66005A   26257.20973684  .00000112  00000-0  99494-4 0  9998
2 01952  90.1531 353.1819 0219112 113.3531 249.0846 13.68161549 18298

Volg OPS 1593 in realtime met AllMySat

Download on the App Store